This is the latest recevied weather packets stored in our database for station/object DK0KTL-4. If no packets are shown the sender has not sent any weather packets the latest 1 day(s).
| Time | Temp. | Humidity | Pressure | Rain* | Wind** | Luminosity | Snow |
|---|---|---|---|---|---|---|---|
| 1778000771 | 17.78° C | 74% | 1005.1 hPa | 0 mm | 0.45 m/s, 154° | - | - |
| 1778000470 | 17.78° C | 74% | 1005.1 hPa | 0 mm | 0.45 m/s, 253° | - | - |
| 1777999870 | 17.78° C | 74% | 1005.1 hPa | 0 mm | 0.45 m/s, 184° | - | - |
| 1777999569 | 17.78° C | 74% | 1005 hPa | 0 mm | 0.45 m/s, 316° | - | - |
| 1777998969 | 18.33° C | 72% | 1005.2 hPa | 0 mm | 0.45 m/s, 226° | - | - |
| 1777998669 | 18.33° C | 72% | 1005.2 hPa | 0 mm | 0.89 m/s, 286° | - | - |
| 1777998368 | 18.33° C | 71% | 1005.2 hPa | 0 mm | 0.89 m/s, 55° | - | - |
| 1777998068 | 18.33° C | 71% | 1005.3 hPa | 0 mm | 0.89 m/s, 206° | - | - |
| 1777997768 | 18.89° C | 70% | 1005.4 hPa | 0 mm | 0.89 m/s, 50° | - | - |
| 1777997167 | 18.89° C | 68% | 1005.4 hPa | 0 mm | 0.89 m/s, 46° | - | - |
| 1777996567 | 20° C | 69% | 1005.3 hPa | 0 mm | 0.45 m/s, 0° | - | - |
| 1777996266 | 20° C | 67% | 1005.4 hPa | 0 mm | 0.89 m/s, 207° | - | - |
| 1777995966 | 20.56° C | 66% | 1005.3 hPa | 0 mm | 0.89 m/s, 218° | - | - |
| 1777995666 | 20.56° C | 64% | 1005.4 hPa | 0 mm | 0.89 m/s, 231° | - | - |
| 1777994164 | 20.56° C | 65% | 1005.6 hPa | 0 mm | 0.89 m/s, 351° | - | - |
| 1777993864 | 20.56° C | 67% | 1005.7 hPa | 0 mm | 0.89 m/s, 269° | - | - |
| 1777993564 | 20.56° C | 67% | 1005.7 hPa | 0 mm | 0.89 m/s, 35° | - | - |
| 1777992963 | 20° C | 71% | 1005.9 hPa | 0 mm | 0.45 m/s, 196° | - | - |
| 1777991762 | 19.44° C | 69% | 1006.1 hPa | 0 mm | 0.45 m/s, 208° | - | - |
| 1777991462 | 19.44° C | 70% | 1006.2 hPa | 0 mm | 0.89 m/s, 267° | - | - |
| 1777989660 | 19.44° C | 69% | 1006.3 hPa | 0 mm | 0.45 m/s, 255° | - | - |
| 1777989360 | 19.44° C | 69% | 1006.4 hPa | 0 mm | 0.45 m/s, 290° | - | - |
| 1777988759 | 19.44° C | 68% | 1006.6 hPa | 0 mm | 0.45 m/s, 202° | - | - |
| 1777988459 | 19.44° C | 69% | 1006.5 hPa | 0 mm | 0.45 m/s, 260° | - | - |
| 1777987858 | 20° C | 65% | 1006.5 hPa | 0 mm | 0.89 m/s, 240° | - | - |
* Rain latest hour (hover to see other rain measurements)
** Current wind speed in m/s (hover to see current wind gust speed)